time_stamp(utc),avg(mph),gust(mph),direction(deg),12m_air_temp(f),sonic_u(cm/s),sonic_v(cm/s),sonic_w(cm/s),pressure,2m_air_temp(f),pyranometer(W/m^2)
"2020-07-12 00:00:21+00",14.3,16.3,,,,,,,,
"2020-07-12 00:01:21+00",15.9,17.9,,,,,,,,
"2020-07-12 00:02:21+00",13.3,15.3,,,,,,,,
"2020-07-12 00:04:21+00",14.3,16.3,,,,,,,,
"2020-07-12 00:05:21+00",13.8,15.8,,,,,,,,
"2020-07-12 00:06:21+00",12.9,14.9,,,,,,,,
"2020-07-12 00:07:21+00",13.2,15.2,,,,,,,,
"2020-07-12 00:09:21+00",12.5,14.5,,,,,,,,
"2020-07-12 00:10:21+00",12.7,13.7,,,,,,,,
"2020-07-12 00:11:21+00",11.9,13.9,,,,,,,,
"2020-07-12 00:12:21+00",12.8,14.8,,,,,,,,
"2020-07-12 00:14:21+00",13.1,15.1,,,,,,,,
"2020-07-12 00:15:21+00",11.2,13.2,,,,,,,,
"2020-07-12 00:16:21+00",11.4,14.4,,,,,,,,
"2020-07-12 00:17:21+00",10.1,12.1,,,,,,,,
"2020-07-12 00:19:21+00",12.2,14.2,,,,,,,,
"2020-07-12 00:20:21+00",7.9,9.9,,,,,,,,
"2020-07-12 00:21:21+00",10.6,13.6,,,,,,,,
"2020-07-12 00:22:21+00",10.1,12.1,,,,,,,,
"2020-07-12 00:24:21+00",10.6,11.6,,,,,,,,
"2020-07-12 00:25:21+00",10.0,12.0,,,,,,,,
"2020-07-12 00:26:21+00",11.2,12.2,,,,,,,,
"2020-07-12 00:27:21+00",10.4,12.4,,,,,,,,
"2020-07-12 00:29:21+00",9.9,10.9,,,,,,,,
"2020-07-12 00:30:21+00",10.7,11.7,,,,,,,,
"2020-07-12 00:31:21+00",9.9,11.9,,,,,,,,
"2020-07-12 00:32:21+00",9.3,11.3,,,,,,,,
"2020-07-12 00:34:21+00",9.5,12.5,,,,,,,,
"2020-07-12 00:35:21+00",11.9,14.9,,,,,,,,
"2020-07-12 00:36:21+00",13.4,15.4,,,,,,,,
"2020-07-12 00:37:21+00",12.2,14.2,,,,,,,,
"2020-07-12 00:39:21+00",12.6,14.6,,,,,,,,
"2020-07-12 00:40:21+00",11.3,14.3,,,,,,,,
"2020-07-12 00:41:21+00",11.1,14.1,,,,,,,,
"2020-07-12 00:42:21+00",12.9,14.9,,,,,,,,
"2020-07-12 00:44:21+00",11.6,14.6,,,,,,,,
"2020-07-12 00:45:21+00",10.8,11.8,,,,,,,,
"2020-07-12 00:46:21+00",9.8,10.8,,,,,,,,
"2020-07-12 00:47:21+00",10.5,12.5,,,,,,,,
"2020-07-12 00:49:21+00",9.6,11.6,,,,,,,,
"2020-07-12 00:50:21+00",11.0,12.0,,,,,,,,
"2020-07-12 00:51:21+00",10.4,11.4,,,,,,,,
"2020-07-12 00:52:21+00",10.5,11.5,,,,,,,,
"2020-07-12 00:54:21+00",10.0,12.0,,,,,,,,
"2020-07-12 00:55:21+00",9.1,12.1,,,,,,,,
"2020-07-12 00:56:21+00",8.1,9.1,,,,,,,,
"2020-07-12 00:57:21+00",8.2,10.2,,,,,,,,
"2020-07-12 00:59:21+00",8.5,10.5,,,,,,,,
"2020-07-12 01:00:21+00",9.5,10.5,,,,,,,,
"2020-07-12 01:01:21+00",8.6,10.6,,,,,,,,
"2020-07-12 01:02:21+00",8.6,10.6,,,,,,,,
"2020-07-12 01:04:21+00",9.8,11.8,,,,,,,,
"2020-07-12 01:05:21+00",10.2,11.2,,,,,,,,
"2020-07-12 01:06:21+00",9.2,10.2,,,,,,,,
"2020-07-12 01:07:21+00",8.9,10.9,,,,,,,,
"2020-07-12 01:09:21+00",9.4,10.4,,,,,,,,
"2020-07-12 01:10:21+00",8.7,9.7,,,,,,,,
"2020-07-12 01:11:21+00",8.9,9.9,,,,,,,,
"2020-07-12 01:12:21+00",8.9,9.9,,,,,,,,
"2020-07-12 01:14:21+00",8.4,9.4,,,,,,,,
"2020-07-12 01:15:21+00",8.0,9.0,,,,,,,,
"2020-07-12 01:16:21+00",8.5,9.5,,,,,,,,
"2020-07-12 01:17:21+00",7.7,9.7,,,,,,,,
"2020-07-12 01:19:21+00",8.2,10.2,,,,,,,,
"2020-07-12 01:20:21+00",7.7,8.7,,,,,,,,
"2020-07-12 01:21:21+00",7.8,8.8,,,,,,,,
"2020-07-12 01:22:21+00",8.7,10.7,,,,,,,,
"2020-07-12 01:24:21+00",8.3,9.3,,,,,,,,
"2020-07-12 01:25:21+00",9.1,10.1,,,,,,,,
"2020-07-12 01:26:21+00",8.7,9.7,,,,,,,,
"2020-07-12 01:27:21+00",8.8,9.8,,,,,,,,
"2020-07-12 01:29:21+00",9.4,10.4,,,,,,,,
"2020-07-12 01:30:21+00",9.5,10.5,,,,,,,,
"2020-07-12 01:31:21+00",9.6,10.6,,,,,,,,
"2020-07-12 01:32:21+00",9.1,10.1,,,,,,,,
"2020-07-12 01:34:21+00",9.1,11.1,,,,,,,,
"2020-07-12 01:35:21+00",10.2,12.2,,,,,,,,
"2020-07-12 01:36:21+00",10.1,11.1,,,,,,,,
"2020-07-12 01:37:21+00",9.9,11.9,,,,,,,,
"2020-07-12 01:39:21+00",10.1,12.1,,,,,,,,
"2020-07-12 01:40:21+00",11.4,13.4,,,,,,,,
"2020-07-12 01:41:21+00",10.8,12.8,,,,,,,,
"2020-07-12 01:42:21+00",12.2,14.2,,,,,,,,
"2020-07-12 01:44:21+00",11.9,13.9,,,,,,,,
"2020-07-12 01:45:21+00",13.0,16.0,,,,,,,,
"2020-07-12 01:46:21+00",12.8,14.8,,,,,,,,
"2020-07-12 01:47:21+00",12.0,14.0,,,,,,,,
"2020-07-12 01:49:21+00",12.9,14.9,,,,,,,,
"2020-07-12 01:50:21+00",12.7,13.7,,,,,,,,
"2020-07-12 01:51:21+00",11.7,13.7,,,,,,,,
"2020-07-12 01:52:21+00",11.9,13.9,,,,,,,,
"2020-07-12 01:54:21+00",12.0,13.0,,,,,,,,
"2020-07-12 01:55:21+00",11.9,14.9,,,,,,,,
"2020-07-12 01:56:21+00",11.6,13.6,,,,,,,,
"2020-07-12 01:57:21+00",12.3,14.3,,,,,,,,
"2020-07-12 01:59:21+00",12.2,14.2,,,,,,,,
"2020-07-12 02:00:21+00",11.5,13.5,,,,,,,,
"2020-07-12 02:01:21+00",11.7,13.7,,,,,,,,
"2020-07-12 02:02:21+00",10.5,11.5,,,,,,,,
"2020-07-12 02:04:21+00",11.6,12.6,,,,,,,,
"2020-07-12 02:05:21+00",11.2,12.2,,,,,,,,
"2020-07-12 02:06:21+00",11.3,14.3,,,,,,,,
"2020-07-12 02:07:21+00",10.2,11.2,,,,,,,,
"2020-07-12 02:09:21+00",10.9,11.9,,,,,,,,
"2020-07-12 02:10:21+00",12.1,13.1,,,,,,,,
"2020-07-12 02:11:21+00",11.3,13.3,,,,,,,,
"2020-07-12 02:12:21+00",11.9,13.9,,,,,,,,
"2020-07-12 02:14:21+00",11.0,13.0,,,,,,,,
"2020-07-12 02:15:21+00",11.9,13.9,,,,,,,,
"2020-07-12 02:16:21+00",12.8,14.8,,,,,,,,
"2020-07-12 02:17:21+00",11.9,12.9,,,,,,,,
"2020-07-12 02:19:21+00",11.2,13.2,,,,,,,,
"2020-07-12 02:20:21+00",11.2,13.2,,,,,,,,
"2020-07-12 02:21:21+00",11.5,13.5,,,,,,,,
"2020-07-12 02:22:21+00",11.7,13.7,,,,,,,,
"2020-07-12 02:24:21+00",11.0,13.0,,,,,,,,
"2020-07-12 02:25:21+00",11.0,12.0,,,,,,,,
"2020-07-12 02:26:21+00",11.1,12.1,,,,,,,,
"2020-07-12 02:27:21+00",10.5,11.5,,,,,,,,
"2020-07-12 02:29:21+00",10.1,12.1,,,,,,,,
"2020-07-12 02:30:21+00",10.3,11.3,,,,,,,,
"2020-07-12 02:31:21+00",9.6,10.6,,,,,,,,
"2020-07-12 02:32:21+00",10.7,12.7,,,,,,,,
"2020-07-12 02:34:21+00",9.9,10.9,,,,,,,,
"2020-07-12 02:35:21+00",10.3,11.3,,,,,,,,
"2020-07-12 02:36:21+00",10.5,11.5,,,,,,,,
"2020-07-12 02:37:21+00",10.4,11.4,,,,,,,,
"2020-07-12 02:39:21+00",11.2,12.2,,,,,,,,
"2020-07-12 02:40:21+00",10.1,12.1,,,,,,,,
"2020-07-12 02:41:21+00",10.7,11.7,,,,,,,,
"2020-07-12 02:42:21+00",10.1,12.1,,,,,,,,
"2020-07-12 02:44:21+00",10.4,12.4,,,,,,,,
"2020-07-12 02:45:21+00",10.3,11.3,,,,,,,,
"2020-07-12 02:46:21+00",9.6,10.6,,,,,,,,
"2020-07-12 02:47:21+00",9.5,11.5,,,,,,,,
"2020-07-12 02:49:21+00",10.4,12.4,,,,,,,,
"2020-07-12 02:50:21+00",9.4,11.4,,,,,,,,
"2020-07-12 02:51:21+00",9.4,10.4,,,,,,,,
"2020-07-12 02:52:21+00",9.3,10.3,,,,,,,,
"2020-07-12 02:54:21+00",9.6,11.6,,,,,,,,
"2020-07-12 02:55:21+00",9.7,10.7,,,,,,,,
"2020-07-12 02:56:21+00",9.9,10.9,,,,,,,,
"2020-07-12 02:57:21+00",9.7,11.7,,,,,,,,
"2020-07-12 02:59:21+00",10.2,11.2,,,,,,,,
"2020-07-12 03:00:21+00",9.5,10.5,,,,,,,,
"2020-07-12 03:01:21+00",9.7,10.7,,,,,,,,
"2020-07-12 03:02:21+00",10.4,12.4,,,,,,,,
"2020-07-12 03:04:21+00",10.7,12.7,,,,,,,,
"2020-07-12 03:05:21+00",10.5,13.5,,,,,,,,
"2020-07-12 03:06:21+00",10.3,12.3,,,,,,,,
"2020-07-12 03:07:21+00",10.6,11.6,,,,,,,,
"2020-07-12 03:09:21+00",11.1,13.1,,,,,,,,
"2020-07-12 03:10:21+00",10.4,12.4,,,,,,,,
"2020-07-12 03:11:21+00",10.7,12.7,,,,,,,,
"2020-07-12 03:12:21+00",11.8,13.8,,,,,,,,
"2020-07-12 03:14:21+00",12.5,14.5,,,,,,,,
"2020-07-12 03:15:21+00",11.9,14.9,,,,,,,,
"2020-07-12 03:16:21+00",12.1,14.1,,,,,,,,
"2020-07-12 03:17:21+00",12.0,14.0,,,,,,,,
"2020-07-12 03:19:21+00",12.4,14.4,,,,,,,,
"2020-07-12 03:20:21+00",10.9,12.9,,,,,,,,
"2020-07-12 03:21:21+00",11.7,13.7,,,,,,,,
"2020-07-12 03:22:21+00",11.8,13.8,,,,,,,,
"2020-07-12 03:24:21+00",11.9,13.9,,,,,,,,
"2020-07-12 03:25:21+00",12.0,13.0,,,,,,,,
"2020-07-12 03:26:21+00",12.2,13.2,,,,,,,,
"2020-07-12 03:27:21+00",11.9,12.9,,,,,,,,
"2020-07-12 03:29:21+00",11.6,12.6,,,,,,,,
"2020-07-12 03:30:21+00",11.1,13.1,,,,,,,,
"2020-07-12 03:31:21+00",10.8,11.8,,,,,,,,
"2020-07-12 03:32:21+00",11.6,12.6,,,,,,,,
"2020-07-12 03:34:21+00",11.9,12.9,,,,,,,,
"2020-07-12 03:35:21+00",11.8,13.8,,,,,,,,
"2020-07-12 03:36:21+00",11.5,13.5,,,,,,,,
"2020-07-12 03:37:21+00",11.3,13.3,,,,,,,,
"2020-07-12 03:39:21+00",11.0,12.0,,,,,,,,
"2020-07-12 03:40:21+00",11.1,13.1,,,,,,,,
"2020-07-12 03:41:21+00",10.4,11.4,,,,,,,,
"2020-07-12 03:42:21+00",10.5,11.5,,,,,,,,
"2020-07-12 03:44:21+00",10.4,11.4,,,,,,,,
"2020-07-12 03:45:21+00",10.2,11.2,,,,,,,,
"2020-07-12 03:46:21+00",11.1,12.1,,,,,,,,
"2020-07-12 03:47:21+00",10.8,11.8,,,,,,,,
"2020-07-12 03:49:21+00",10.5,12.5,,,,,,,,
"2020-07-12 03:50:21+00",11.3,13.3,,,,,,,,
"2020-07-12 03:51:21+00",10.5,12.5,,,,,,,,
"2020-07-12 03:52:21+00",11.7,13.7,,,,,,,,
"2020-07-12 03:54:21+00",11.9,12.9,,,,,,,,
"2020-07-12 03:55:21+00",11.3,13.3,,,,,,,,
"2020-07-12 03:56:21+00",11.8,13.8,,,,,,,,
"2020-07-12 03:57:21+00",12.1,14.1,,,,,,,,
"2020-07-12 03:59:21+00",11.9,13.9,,,,,,,,
"2020-07-12 04:00:21+00",11.4,12.4,,,,,,,,
"2020-07-12 04:01:21+00",11.5,12.5,,,,,,,,
"2020-07-12 04:02:21+00",11.5,13.5,,,,,,,,
"2020-07-12 04:04:21+00",11.4,12.4,,,,,,,,
"2020-07-12 04:05:21+00",11.3,13.3,,,,,,,,
"2020-07-12 04:06:21+00",10.8,12.8,,,,,,,,
"2020-07-12 04:07:21+00",11.1,13.1,,,,,,,,
"2020-07-12 04:09:21+00",10.8,13.8,,,,,,,,
"2020-07-12 04:10:21+00",11.2,13.2,,,,,,,,
"2020-07-12 04:11:21+00",10.9,12.9,,,,,,,,
"2020-07-12 04:12:21+00",11.3,13.3,,,,,,,,
"2020-07-12 04:14:21+00",10.5,12.5,,,,,,,,
"2020-07-12 04:15:21+00",10.3,12.3,,,,,,,,
"2020-07-12 04:16:21+00",10.7,11.7,,,,,,,,
"2020-07-12 04:17:21+00",11.6,12.6,,,,,,,,
"2020-07-12 04:19:21+00",10.3,13.3,,,,,,,,
"2020-07-12 04:20:21+00",9.7,10.7,,,,,,,,
"2020-07-12 04:21:21+00",11.0,12.0,,,,,,,,
"2020-07-12 04:22:21+00",11.1,13.1,,,,,,,,
"2020-07-12 04:24:21+00",10.9,12.9,,,,,,,,
"2020-07-12 04:25:21+00",11.3,13.3,,,,,,,,
"2020-07-12 04:26:21+00",12.1,13.1,,,,,,,,
"2020-07-12 04:27:21+00",11.3,13.3,,,,,,,,
"2020-07-12 04:29:21+00",12.6,14.6,,,,,,,,
"2020-07-12 04:30:21+00",12.5,13.5,,,,,,,,
"2020-07-12 04:31:21+00",12.4,14.4,,,,,,,,
"2020-07-12 04:32:21+00",12.5,14.5,,,,,,,,
"2020-07-12 04:34:21+00",12.7,13.7,,,,,,,,
"2020-07-12 04:35:21+00",13.5,16.5,,,,,,,,
"2020-07-12 04:36:21+00",13.5,15.5,,,,,,,,
"2020-07-12 04:37:21+00",13.3,15.3,,,,,,,,
"2020-07-12 04:39:21+00",13.5,16.5,,,,,,,,
"2020-07-12 04:40:21+00",13.1,15.1,,,,,,,,
"2020-07-12 04:41:21+00",12.7,14.7,,,,,,,,
"2020-07-12 04:42:21+00",13.5,14.5,,,,,,,,
"2020-07-12 04:44:21+00",12.6,14.6,,,,,,,,
"2020-07-12 04:45:21+00",12.2,14.2,,,,,,,,
"2020-07-12 04:46:21+00",12.4,14.4,,,,,,,,
"2020-07-12 04:47:21+00",12.3,14.3,,,,,,,,
"2020-07-12 04:49:21+00",11.7,14.7,,,,,,,,
"2020-07-12 04:50:21+00",11.7,14.7,,,,,,,,
"2020-07-12 04:51:21+00",10.4,11.4,,,,,,,,
"2020-07-12 04:52:21+00",11.1,14.1,,,,,,,,
"2020-07-12 04:54:21+00",11.3,14.3,,,,,,,,
"2020-07-12 04:55:21+00",12.2,14.2,,,,,,,,
"2020-07-12 04:56:21+00",12.4,14.4,,,,,,,,
"2020-07-12 04:57:21+00",12.6,13.6,,,,,,,,
"2020-07-12 04:59:21+00",12.0,15.0,,,,,,,,
"2020-07-12 05:00:21+00",12.7,14.7,,,,,,,,
"2020-07-12 05:01:21+00",12.0,13.0,,,,,,,,
"2020-07-12 05:02:21+00",12.8,14.8,,,,,,,,
"2020-07-12 05:04:21+00",12.8,15.8,,,,,,,,
"2020-07-12 05:05:21+00",12.6,13.6,,,,,,,,
"2020-07-12 05:06:21+00",13.5,14.5,,,,,,,,
"2020-07-12 05:07:21+00",12.4,15.4,,,,,,,,
"2020-07-12 05:09:21+00",11.6,13.6,,,,,,,,
"2020-07-12 05:10:21+00",12.6,13.6,,,,,,,,
"2020-07-12 05:11:21+00",11.9,13.9,,,,,,,,
"2020-07-12 05:12:21+00",13.3,15.3,,,,,,,,
"2020-07-12 05:14:21+00",11.4,13.4,,,,,,,,
"2020-07-12 05:15:21+00",11.9,13.9,,,,,,,,
"2020-07-12 05:16:21+00",11.8,12.8,,,,,,,,
"2020-07-12 05:17:21+00",11.6,12.6,,,,,,,,
"2020-07-12 05:19:21+00",10.4,12.4,,,,,,,,
"2020-07-12 05:20:21+00",10.6,12.6,,,,,,,,
"2020-07-12 05:21:21+00",11.0,13.0,,,,,,,,
"2020-07-12 05:22:21+00",10.8,13.8,,,,,,,,
"2020-07-12 05:24:21+00",10.7,12.7,,,,,,,,
"2020-07-12 05:25:21+00",10.8,11.8,,,,,,,,
"2020-07-12 05:26:21+00",10.8,12.8,,,,,,,,
"2020-07-12 05:27:21+00",10.7,11.7,,,,,,,,
"2020-07-12 05:29:21+00",11.7,12.7,,,,,,,,
"2020-07-12 05:30:21+00",11.3,13.3,,,,,,,,
"2020-07-12 05:31:21+00",12.2,13.2,,,,,,,,
"2020-07-12 05:32:21+00",11.9,13.9,,,,,,,,
"2020-07-12 05:34:21+00",12.0,13.0,,,,,,,,
"2020-07-12 05:35:21+00",11.5,13.5,,,,,,,,
"2020-07-12 05:36:21+00",10.7,11.7,,,,,,,,
"2020-07-12 05:37:21+00",10.6,12.6,,,,,,,,
"2020-07-12 05:39:21+00",11.6,12.6,,,,,,,,
"2020-07-12 05:40:21+00",11.3,13.3,,,,,,,,
"2020-07-12 05:41:21+00",11.1,12.1,,,,,,,,
"2020-07-12 05:42:21+00",10.7,12.7,,,,,,,,
"2020-07-12 05:44:21+00",11.1,13.1,,,,,,,,
"2020-07-12 05:45:21+00",10.5,11.5,,,,,,,,
"2020-07-12 05:46:21+00",11.7,13.7,,,,,,,,
"2020-07-12 05:47:21+00",12.0,15.0,,,,,,,,
"2020-07-12 05:49:21+00",11.4,12.4,,,,,,,,
"2020-07-12 05:50:21+00",11.6,13.6,,,,,,,,
"2020-07-12 05:51:21+00",11.1,12.1,,,,,,,,
"2020-07-12 05:52:21+00",9.7,10.7,,,,,,,,
"2020-07-12 05:54:21+00",10.3,11.3,,,,,,,,
"2020-07-12 05:55:21+00",10.7,11.7,,,,,,,,
"2020-07-12 05:56:21+00",10.5,12.5,,,,,,,,
"2020-07-12 05:57:21+00",10.1,12.1,,,,,,,,
"2020-07-12 05:59:21+00",10.2,11.2,,,,,,,,
"2020-07-12 06:00:21+00",10.2,11.2,,,,,,,,
"2020-07-12 06:01:21+00",10.3,11.3,,,,,,,,
"2020-07-12 06:02:21+00",10.5,12.5,,,,,,,,
"2020-07-12 06:04:21+00",10.9,12.9,,,,,,,,
"2020-07-12 06:05:21+00",11.0,13.0,,,,,,,,
"2020-07-12 06:06:21+00",10.9,12.9,,,,,,,,
"2020-07-12 06:07:21+00",10.9,12.9,,,,,,,,
"2020-07-12 06:09:21+00",10.9,12.9,,,,,,,,
"2020-07-12 06:10:21+00",11.0,13.0,,,,,,,,
"2020-07-12 06:11:21+00",11.3,12.3,,,,,,,,
"2020-07-12 06:12:21+00",12.4,13.4,,,,,,,,
"2020-07-12 06:14:21+00",11.7,12.7,,,,,,,,
"2020-07-12 06:15:21+00",11.2,12.2,,,,,,,,
"2020-07-12 06:16:21+00",10.1,11.1,,,,,,,,
"2020-07-12 06:17:21+00",11.0,12.0,,,,,,,,
"2020-07-12 06:19:21+00",9.8,10.8,,,,,,,,
"2020-07-12 06:20:21+00",9.6,10.6,,,,,,,,
"2020-07-12 06:21:21+00",10.2,11.2,,,,,,,,
"2020-07-12 06:22:21+00",9.8,11.8,,,,,,,,
"2020-07-12 06:24:21+00",10.1,12.1,,,,,,,,
"2020-07-12 06:25:21+00",9.7,10.7,,,,,,,,
"2020-07-12 06:26:21+00",9.9,11.9,,,,,,,,
"2020-07-12 06:27:21+00",10.1,11.1,,,,,,,,
"2020-07-12 06:29:21+00",9.4,10.4,,,,,,,,
"2020-07-12 06:30:21+00",9.6,11.6,,,,,,,,
"2020-07-12 06:31:21+00",9.2,11.2,,,,,,,,
"2020-07-12 06:32:21+00",9.1,11.1,,,,,,,,
"2020-07-12 06:34:21+00",9.5,11.5,,,,,,,,
"2020-07-12 06:35:21+00",9.1,11.1,,,,,,,,
"2020-07-12 06:36:21+00",9.6,10.6,,,,,,,,
"2020-07-12 06:37:21+00",9.5,10.5,,,,,,,,
"2020-07-12 06:39:21+00",9.5,11.5,,,,,,,,
"2020-07-12 06:40:21+00",9.3,10.3,,,,,,,,
"2020-07-12 06:41:21+00",10.3,11.3,,,,,,,,
"2020-07-12 06:42:21+00",10.2,11.2,,,,,,,,
"2020-07-12 06:44:21+00",10.1,12.1,,,,,,,,
"2020-07-12 06:45:21+00",9.9,11.9,,,,,,,,
"2020-07-12 06:46:21+00",10.1,12.1,,,,,,,,
"2020-07-12 06:47:21+00",10.9,12.9,,,,,,,,
"2020-07-12 06:49:21+00",9.8,10.8,,,,,,,,
"2020-07-12 06:50:21+00",10.3,12.3,,,,,,,,
"2020-07-12 06:51:21+00",11.0,13.0,,,,,,,,
"2020-07-12 06:52:21+00",9.8,10.8,,,,,,,,
"2020-07-12 06:54:21+00",11.2,13.2,,,,,,,,
"2020-07-12 06:55:21+00",9.7,10.7,,,,,,,,
"2020-07-12 06:56:21+00",9.4,10.4,,,,,,,,
"2020-07-12 06:57:21+00",11.2,12.2,,,,,,,,
"2020-07-12 06:59:21+00",10.0,11.0,,,,,,,,
"2020-07-12 07:00:21+00",11.1,13.1,,,,,,,,
"2020-07-12 07:01:21+00",10.3,11.3,,,,,,,,
"2020-07-12 07:02:21+00",10.4,12.4,,,,,,,,
"2020-07-12 07:04:21+00",10.3,11.3,,,,,,,,
"2020-07-12 07:05:21+00",10.1,11.1,,,,,,,,
"2020-07-12 07:06:21+00",10.8,11.8,,,,,,,,
"2020-07-12 07:07:21+00",10.8,11.8,,,,,,,,
"2020-07-12 07:09:21+00",11.8,15.8,,,,,,,,
"2020-07-12 07:10:21+00",10.8,12.8,,,,,,,,
"2020-07-12 07:11:21+00",10.2,11.2,,,,,,,,
"2020-07-12 07:12:21+00",10.4,12.4,,,,,,,,
"2020-07-12 07:14:21+00",10.8,12.8,,,,,,,,
"2020-07-12 07:15:21+00",10.3,12.3,,,,,,,,
"2020-07-12 07:16:21+00",10.8,12.8,,,,,,,,
"2020-07-12 07:17:21+00",11.8,13.8,,,,,,,,
"2020-07-12 07:19:21+00",11.7,12.7,,,,,,,,
"2020-07-12 07:20:21+00",12.5,13.5,,,,,,,,
"2020-07-12 07:21:21+00",10.9,12.9,,,,,,,,
"2020-07-12 07:22:21+00",10.9,12.9,,,,,,,,
"2020-07-12 07:24:21+00",12.2,15.2,,,,,,,,
"2020-07-12 07:25:21+00",12.8,14.8,,,,,,,,
"2020-07-12 07:26:21+00",12.3,13.3,,,,,,,,
"2020-07-12 07:27:21+00",12.0,14.0,,,,,,,,
"2020-07-12 07:29:21+00",12.6,13.6,,,,,,,,
"2020-07-12 07:30:21+00",12.7,13.7,,,,,,,,
"2020-07-12 07:31:21+00",12.8,14.8,,,,,,,,
"2020-07-12 07:32:21+00",12.8,14.8,,,,,,,,
"2020-07-12 07:34:21+00",13.0,15.0,,,,,,,,
"2020-07-12 07:35:21+00",13.5,14.5,,,,,,,,
"2020-07-12 07:36:21+00",13.4,15.4,,,,,,,,
"2020-07-12 07:37:21+00",13.6,15.6,,,,,,,,
"2020-07-12 07:39:21+00",12.5,13.5,,,,,,,,
"2020-07-12 07:40:21+00",13.0,15.0,,,,,,,,
"2020-07-12 07:41:21+00",13.7,14.7,,,,,,,,
"2020-07-12 07:42:21+00",12.9,14.9,,,,,,,,
"2020-07-12 07:44:21+00",12.2,14.2,,,,,,,,
"2020-07-12 07:45:21+00",12.2,13.2,,,,,,,,
"2020-07-12 07:46:21+00",12.6,13.6,,,,,,,,
"2020-07-12 07:47:21+00",11.9,12.9,,,,,,,,
"2020-07-12 07:49:21+00",12.0,14.0,,,,,,,,
"2020-07-12 07:50:21+00",12.2,14.2,,,,,,,,
"2020-07-12 07:51:21+00",12.4,14.4,,,,,,,,
"2020-07-12 07:52:21+00",12.2,14.2,,,,,,,,
"2020-07-12 07:54:21+00",11.7,13.7,,,,,,,,
"2020-07-12 07:55:21+00",11.9,14.9,,,,,,,,
"2020-07-12 07:56:21+00",12.2,13.2,,,,,,,,
"2020-07-12 07:57:21+00",12.6,13.6,,,,,,,,
"2020-07-12 07:59:21+00",11.9,13.9,,,,,,,,
"2020-07-12 08:00:21+00",12.8,14.8,,,,,,,,
"2020-07-12 08:01:21+00",12.3,14.3,,,,,,,,
"2020-07-12 08:02:21+00",11.8,12.8,,,,,,,,
"2020-07-12 08:04:21+00",11.4,13.4,,,,,,,,
"2020-07-12 08:05:21+00",11.6,14.6,,,,,,,,
"2020-07-12 08:06:21+00",12.4,14.4,,,,,,,,
"2020-07-12 08:07:21+00",11.9,13.9,,,,,,,,
"2020-07-12 08:09:21+00",12.0,14.0,,,,,,,,
"2020-07-12 08:10:21+00",12.4,14.4,,,,,,,,
"2020-07-12 08:11:21+00",11.8,13.8,,,,,,,,
"2020-07-12 08:12:21+00",11.5,12.5,,,,,,,,
"2020-07-12 08:14:21+00",10.3,12.3,,,,,,,,
"2020-07-12 08:15:21+00",10.8,12.8,,,,,,,,
"2020-07-12 08:16:21+00",10.5,11.5,,,,,,,,
"2020-07-12 08:17:21+00",11.0,13.0,,,,,,,,
"2020-07-12 08:19:21+00",10.9,13.9,,,,,,,,
"2020-07-12 08:20:21+00",10.7,13.7,,,,,,,,
"2020-07-12 08:21:21+00",10.2,11.2,,,,,,,,
"2020-07-12 08:22:21+00",10.4,11.4,,,,,,,,
"2020-07-12 08:24:21+00",10.8,11.8,,,,,,,,
"2020-07-12 08:25:21+00",10.1,11.1,,,,,,,,
"2020-07-12 08:26:21+00",11.6,13.6,,,,,,,,
"2020-07-12 08:27:21+00",10.4,11.4,,,,,,,,
"2020-07-12 08:29:21+00",10.8,12.8,,,,,,,,
"2020-07-12 08:30:21+00",11.6,13.6,,,,,,,,
"2020-07-12 08:31:21+00",11.6,12.6,,,,,,,,
"2020-07-12 08:32:21+00",12.6,14.6,,,,,,,,
"2020-07-12 08:34:21+00",11.4,14.4,,,,,,,,
"2020-07-12 08:35:21+00",12.0,13.0,,,,,,,,
"2020-07-12 08:36:21+00",11.2,13.2,,,,,,,,
"2020-07-12 08:37:21+00",12.1,15.1,,,,,,,,
"2020-07-12 08:39:21+00",11.8,12.8,,,,,,,,
"2020-07-12 08:40:21+00",10.7,11.7,,,,,,,,
"2020-07-12 08:41:21+00",10.4,11.4,,,,,,,,
"2020-07-12 08:42:21+00",11.1,13.1,,,,,,,,
"2020-07-12 08:44:21+00",11.1,12.1,,,,,,,,
"2020-07-12 08:45:21+00",11.5,13.5,,,,,,,,
"2020-07-12 08:46:21+00",10.4,11.4,,,,,,,,
"2020-07-12 08:47:21+00",11.3,12.3,,,,,,,,
"2020-07-12 08:49:21+00",10.5,13.5,,,,,,,,
"2020-07-12 08:50:21+00",11.1,13.1,,,,,,,,
"2020-07-12 08:51:21+00",11.4,13.4,,,,,,,,
"2020-07-12 08:52:21+00",11.8,13.8,,,,,,,,
"2020-07-12 08:54:21+00",12.1,14.1,,,,,,,,
"2020-07-12 08:55:21+00",10.4,12.4,,,,,,,,
"2020-07-12 08:56:21+00",11.7,13.7,,,,,,,,
"2020-07-12 08:57:21+00",11.3,13.3,,,,,,,,
"2020-07-12 08:59:21+00",10.3,12.3,,,,,,,,
"2020-07-12 09:00:21+00",11.0,13.0,,,,,,,,
"2020-07-12 09:01:21+00",11.1,12.1,,,,,,,,
"2020-07-12 09:02:21+00",11.5,13.5,,,,,,,,
"2020-07-12 09:04:21+00",10.5,12.5,,,,,,,,
"2020-07-12 09:05:21+00",11.6,12.6,,,,,,,,
"2020-07-12 09:06:21+00",13.4,16.4,,,,,,,,
"2020-07-12 09:07:21+00",14.0,15.0,,,,,,,,
"2020-07-12 09:09:21+00",12.9,14.9,,,,,,,,
"2020-07-12 09:10:21+00",14.2,17.2,,,,,,,,
"2020-07-12 09:11:21+00",14.6,17.6,,,,,,,,
"2020-07-12 09:12:21+00",13.1,15.1,,,,,,,,
"2020-07-12 09:14:21+00",14.8,17.8,,,,,,,,
"2020-07-12 09:15:21+00",13.8,15.8,,,,,,,,
"2020-07-12 09:16:21+00",13.6,16.6,,,,,,,,
"2020-07-12 09:17:21+00",13.4,15.4,,,,,,,,
"2020-07-12 09:19:21+00",15.3,18.3,,,,,,,,
"2020-07-12 09:20:21+00",14.3,16.3,,,,,,,,
"2020-07-12 09:21:21+00",14.0,16.0,,,,,,,,
"2020-07-12 09:22:21+00",13.7,16.7,,,,,,,,
"2020-07-12 09:24:21+00",14.3,16.3,,,,,,,,
"2020-07-12 09:25:21+00",13.8,15.8,,,,,,,,
"2020-07-12 09:26:21+00",15.0,17.0,,,,,,,,
"2020-07-12 09:27:21+00",13.7,15.7,,,,,,,,
"2020-07-12 09:29:21+00",13.5,16.5,,,,,,,,
"2020-07-12 09:30:21+00",13.6,14.6,,,,,,,,
"2020-07-12 09:31:21+00",14.0,16.0,,,,,,,,
"2020-07-12 09:32:21+00",14.4,16.4,,,,,,,,
"2020-07-12 09:34:21+00",13.2,15.2,,,,,,,,
"2020-07-12 09:35:21+00",13.6,15.6,,,,,,,,
"2020-07-12 09:36:21+00",12.9,14.9,,,,,,,,
"2020-07-12 09:37:21+00",12.5,14.5,,,,,,,,
"2020-07-12 09:39:21+00",13.7,15.7,,,,,,,,
"2020-07-12 09:40:21+00",13.3,15.3,,,,,,,,
"2020-07-12 09:41:21+00",14.2,17.2,,,,,,,,
"2020-07-12 09:42:21+00",14.0,16.0,,,,,,,,
"2020-07-12 09:44:21+00",14.4,16.4,,,,,,,,
"2020-07-12 09:45:21+00",13.1,15.1,,,,,,,,
"2020-07-12 09:46:21+00",12.9,15.9,,,,,,,,
"2020-07-12 09:47:21+00",13.9,16.9,,,,,,,,
"2020-07-12 09:49:21+00",13.4,15.4,,,,,,,,
"2020-07-12 09:50:21+00",13.2,15.2,,,,,,,,
"2020-07-12 09:51:21+00",13.3,15.3,,,,,,,,
"2020-07-12 09:52:21+00",14.4,15.4,,,,,,,,
"2020-07-12 09:54:21+00",14.1,17.1,,,,,,,,
"2020-07-12 09:55:21+00",12.9,14.9,,,,,,,,
"2020-07-12 09:56:21+00",11.9,14.9,,,,,,,,
"2020-07-12 09:57:21+00",12.2,14.2,,,,,,,,
"2020-07-12 09:59:21+00",13.1,15.1,,,,,,,,
"2020-07-12 10:00:21+00",13.0,14.0,,,,,,,,
"2020-07-12 10:01:21+00",14.0,16.0,,,,,,,,
"2020-07-12 10:02:21+00",12.9,14.9,,,,,,,,
"2020-07-12 10:04:21+00",12.5,13.5,,,,,,,,
"2020-07-12 10:05:21+00",12.6,13.6,,,,,,,,
"2020-07-12 10:06:21+00",13.5,14.5,,,,,,,,
"2020-07-12 10:07:21+00",13.6,16.6,,,,,,,,
"2020-07-12 10:09:21+00",12.6,14.6,,,,,,,,
"2020-07-12 10:10:21+00",12.8,15.8,,,,,,,,
"2020-07-12 10:11:21+00",13.4,15.4,,,,,,,,
"2020-07-12 10:12:21+00",10.9,11.9,,,,,,,,
"2020-07-12 10:14:21+00",11.5,13.5,,,,,,,,
"2020-07-12 10:15:21+00",11.8,13.8,,,,,,,,
"2020-07-12 10:16:21+00",12.6,14.6,,,,,,,,
"2020-07-12 10:17:21+00",12.2,14.2,,,,,,,,
"2020-07-12 10:19:21+00",12.2,14.2,,,,,,,,
"2020-07-12 10:20:21+00",11.1,12.1,,,,,,,,
"2020-07-12 10:21:21+00",11.8,12.8,,,,,,,,
"2020-07-12 10:22:21+00",12.8,14.8,,,,,,,,
"2020-07-12 10:24:21+00",11.6,13.6,,,,,,,,
"2020-07-12 10:25:21+00",12.2,14.2,,,,,,,,
"2020-07-12 10:26:21+00",11.3,12.3,,,,,,,,
"2020-07-12 10:27:21+00",10.3,11.3,,,,,,,,
"2020-07-12 10:29:21+00",10.3,12.3,,,,,,,,
"2020-07-12 10:30:21+00",9.5,11.5,,,,,,,,
"2020-07-12 10:31:21+00",10.3,12.3,,,,,,,,
"2020-07-12 10:32:21+00",10.8,13.8,,,,,,,,
"2020-07-12 10:34:21+00",11.0,14.0,,,,,,,,
"2020-07-12 10:35:21+00",9.6,11.6,,,,,,,,
"2020-07-12 10:36:21+00",9.7,13.7,,,,,,,,
"2020-07-12 10:37:21+00",10.5,12.5,,,,,,,,
"2020-07-12 10:39:21+00",11.3,13.3,,,,,,,,
"2020-07-12 10:40:21+00",11.8,13.8,,,,,,,,
"2020-07-12 10:41:21+00",10.4,12.4,,,,,,,,
"2020-07-12 10:42:21+00",12.0,14.0,,,,,,,,
"2020-07-12 10:44:21+00",12.1,14.1,,,,,,,,
"2020-07-12 10:45:21+00",12.6,14.6,,,,,,,,
"2020-07-12 10:46:21+00",10.6,12.6,,,,,,,,
"2020-07-12 10:47:21+00",13.1,15.1,,,,,,,,
"2020-07-12 10:49:21+00",11.3,13.3,,,,,,,,
"2020-07-12 10:50:21+00",12.9,14.9,,,,,,,,
"2020-07-12 10:51:21+00",13.9,15.9,,,,,,,,
"2020-07-12 10:52:21+00",11.5,14.5,,,,,,,,
"2020-07-12 10:54:21+00",13.2,15.2,,,,,,,,
"2020-07-12 10:55:21+00",11.9,14.9,,,,,,,,
"2020-07-12 10:56:21+00",12.0,14.0,,,,,,,,
"2020-07-12 10:57:21+00",13.0,14.0,,,,,,,,
"2020-07-12 10:59:21+00",11.9,12.9,,,,,,,,
"2020-07-12 11:00:21+00",12.2,13.2,,,,,,,,
"2020-07-12 11:01:21+00",11.8,13.8,,,,,,,,
"2020-07-12 11:02:21+00",12.0,14.0,,,,,,,,
"2020-07-12 11:04:21+00",11.5,13.5,,,,,,,,
"2020-07-12 11:05:21+00",11.3,13.3,,,,,,,,
"2020-07-12 11:06:21+00",13.0,14.0,,,,,,,,
"2020-07-12 11:07:21+00",14.1,16.1,,,,,,,,
"2020-07-12 11:09:21+00",13.6,16.6,,,,,,,,
"2020-07-12 11:10:21+00",13.5,15.5,,,,,,,,
"2020-07-12 11:11:21+00",11.7,13.7,,,,,,,,
"2020-07-12 11:12:21+00",13.0,15.0,,,,,,,,
"2020-07-12 11:14:21+00",12.8,14.8,,,,,,,,
"2020-07-12 11:15:21+00",12.7,13.7,,,,,,,,
"2020-07-12 11:16:21+00",13.2,16.2,,,,,,,,
"2020-07-12 11:17:21+00",14.4,16.4,,,,,,,,
"2020-07-12 11:19:21+00",13.1,16.1,,,,,,,,
"2020-07-12 11:20:21+00",13.6,16.6,,,,,,,,
"2020-07-12 11:21:21+00",12.5,14.5,,,,,,,,
"2020-07-12 11:22:21+00",13.0,15.0,,,,,,,,
"2020-07-12 11:24:21+00",12.5,15.5,,,,,,,,
"2020-07-12 11:25:21+00",12.0,14.0,,,,,,,,
"2020-07-12 11:26:21+00",14.6,17.6,,,,,,,,
"2020-07-12 11:27:21+00",13.5,17.5,,,,,,,,
"2020-07-12 11:29:21+00",12.0,14.0,,,,,,,,
"2020-07-12 11:30:21+00",12.1,14.1,,,,,,,,
"2020-07-12 11:31:21+00",11.3,13.3,,,,,,,,
"2020-07-12 11:32:21+00",13.4,15.4,,,,,,,,
"2020-07-12 11:34:21+00",12.3,14.3,,,,,,,,